Regional Weather Roundup
Issued by NWS

Home | Current Version | Previous Version | Text Only | Print | Product List | Glossary On
Versions: 1 2 3 4 5 6 7 8 9 10 11 12 13 14 15 16 17 18 19 20 21 22 23 24 25 26 27 28 29 30 31 32 33 34 35 36 37 38 39 40 41 42 43 44 45 46 47 48 49 50
000
ASUS43 KMKX 121221
RWRWI

WISCONSIN REGIONAL WEATHER ROUNDUP
NATIONAL WEATHER SERVICE MILWAUKEE/SULLIVAN WI
600 AM CST FRI FEB 12 2016

NOTE: "FAIR" INDICATES FEW OR NO CLOUDS BELOW 12,000 FEET WITH NO
SIGNIFICANT WEATHER AND/OR OBSTRUCTIONS TO VISIBILITY.

WIZ001-002-006>008-014>016-023>028-121300-
NORTHWEST WISCONSIN

CITY           SKY/WX    TMP DP  RH WIND       PRES   REMARKS
SUPERIOR ARPT  CLEAR      4  -5  67 NW9       30.25R WCI -11
6HR MIN TEMP:   4; 6HR MAX TEMP:  12;

ASHLAND        MOCLDY     5  -2  72 W9        30.17R WCI  -9
6HR MIN TEMP:   5; 6HR MAX TEMP:  13;

HAYWARD        PTCLDY     4  -5  66 VRB7      30.17R WCI  -8
6HR MIN TEMP:   4; 6HR MAX TEMP:  12;

SIREN          CLEAR      6  -2  70 NW8       30.24R WCI  -7
6HR MIN TEMP:   6; 6HR MAX TEMP:  14;

CUMBERLAND     PTCLDY     7  -2  66 NW13      30.18R WCI  -9
RICE LAKE      CLEAR      7  -1  69 NW7       30.21R WCI  -5
6HR MIN TEMP:   7; 6HR MAX TEMP:  13;

CHETEK         PTCLDY     7  -1  71 NW5       30.19R WCI  -2
6HR MIN TEMP:   7; 6HR MAX TEMP:  13;

LADYSMITH      CLEAR      8  -1  67 NW17G25   30.15R WCI -11
6HR MIN TEMP:   8; 6HR MAX TEMP:  13;

EAU CLAIRE     CLOUDY    12   2  64 N8        30.19R WCI   0
6HR MIN TEMP:  12; 6HR MAX TEMP:  14;

MENOMONIE      PTCLDY    12   4  70 W10       30.21R WCI  -1
6HR MIN TEMP:  12; 6HR MAX TEMP:  16;

NEW RICHMOND   CLEAR      9   0  69 NW13G21   30.23R WCI  -7
6HR MIN TEMP:   9; 6HR MAX TEMP:  13;

OSCEOLA        PTCLDY    10   1  69 NW9G16    30.28R WCI  -4
6HR MIN TEMP:  10; 6HR MAX TEMP:  15;

$$

WIZ003>005-009-010-017-018-121300-
NORTH CENTRAL WISCONSIN

CITY           SKY/WX    TMP DP  RH WIND       PRES   REMARKS
MANITOWISH WTR CLOUDY     6   0  76 W14G23    30.02R WCI -12
6HR MIN TEMP:   5; 6HR MAX TEMP:   8;

ARBOR VITAE    PTCLDY     9   1  69 NW12      30.02R WCI  -6
6HR MIN TEMP:   9; 6HR MAX TEMP:  11;

WOODRUFF       PTCLDY     9   1  69 NW12      30.02R WCI  -6
6HR MIN TEMP:   9; 6HR MAX TEMP:  11;

RHINELANDER    MOCLDY     7  -3  64 W13G20    30.02R WCI  -9
6HR MIN TEMP:   7; 6HR MAX TEMP:  10; 6HR PCP: TRACE;

EAGLE RIVER    PTCLDY     7  -2  69 W12       29.99R WCI  -9
LAND O LAKES   LGT SNOW   7   2  80 NW6       29.98S WCI  -3
6HR MIN TEMP:   7; 6HR MAX TEMP:  10;

PHILLIPS       CLOUDY     5  -2  72 NW6       30.07R WCI  -6
6HR MIN TEMP:   5; 6HR MAX TEMP:  10;

TOMAHAWK       MOCLDY     7  -2  66 W9        30.06R WCI  -7
6HR MIN TEMP:   7; 6HR MAX TEMP:  10;

MEDFORD        CLOUDY     8   1  72 NW10      30.07R WCI  -6
6HR MIN TEMP:   8; 6HR MAX TEMP:  11;

MERRILL        CLOUDY    10   0  66 NW16G25   30.07S WCI  -8
6HR MIN TEMP:  10; 6HR MAX TEMP:  12;

$$

WIZ029-030-035-036-043>047-121300-
CENTRAL WISCONSIN

CITY           SKY/WX    TMP DP  RH WIND       PRES   REMARKS
WAUSAU         CLOUDY    12   2  64 NW13      30.07R WCI  -3
6HR MIN TEMP:  12; 6HR MAX TEMP:  14; 6HR PCP: TRACE;

MOSINEE        CLOUDY    10   5  79 NW8       30.08R WCI  -1
MARSHFIELD     LGT SNOW  12   4  70 NW14      30.09R WCI  -3
6HR MIN TEMP:  12; 6HR MAX TEMP:  13; 6HR PCP: TRACE;

STEVENS POINT  CLOUDY    11   2  68 NW8       30.10R WCI  -1
6HR MIN TEMP:  11; 6HR MAX TEMP:  13;

WAUPACA        CLOUDY    15   5  63 W6        30.11R WCI   7
6HR MIN TEMP:  15; 6HR MAX TEMP:  17;

WAUTOMA        CLOUDY    13   4  67 W10       30.12S WCI   0
6HR MIN TEMP:  13; 6HR MAX TEMP:  15;

WISC RAPIDS    CLOUDY    12   4  70 W8        30.13R WCI   0
6HR MIN TEMP:  12; 6HR MAX TEMP:  14;

CAMP DOUGLAS   CLOUDY    13  11  93 W10       30.14R WCI  -1
6HR MIN TEMP:  12; 6HR MAX TEMP:  14;

$$

WIZ011>013-019>022-031-037>040-048>050-121300-
NORTHEAST WISCONSIN

CITY           SKY/WX    TMP DP  RH WIND       PRES   REMARKS
ANTIGO         CLOUDY     8  -1  66 NW17G24   30.02S WCI -11
6HR MIN TEMP:   8; 6HR MAX TEMP:  10;

SHAWANO        CLOUDY    14   2  57 W7        30.09S WCI   4
6HR MIN TEMP:  14; 6HR MAX TEMP:  17;

OCONTO         MOCLDY    13   1  59 W8        30.08S WCI   1
6HR MIN TEMP:  13; 6HR MAX TEMP:  15;

STURGEON BAY   CLEAR     10  -2  56 W12       30.06S WCI  -4
6HR MIN TEMP:  10; 6HR MAX TEMP:  14;

GREEN BAY      CLOUDY    13   3  64 W9        30.09R WCI   1
6HR MIN TEMP:  13; 6HR MAX TEMP:  16;

MANITOWOC      CLOUDY    15   4  61 W10       30.09R WCI   2
6HR MIN TEMP:  15; 6HR MAX TEMP:  16;

APPLETON       CLOUDY    12   1  62 W9        30.07R WCI   0
CLINTONVILLE   CLOUDY    14   3  62 NW8       30.09S WCI   3
OSHKOSH        CLOUDY    14   3  61 W14       30.10S WCI  -1
6HR MIN TEMP:  14; 6HR MAX TEMP:  15;

$$

WIZ032>034-041-042-053>061-121300-
SOUTHWEST WISCONSIN

CITY           SKY/WX    TMP DP  RH WIND       PRES   REMARKS
LA CROSSE      MOCLDY    13   7  77 NW13      30.21R WCI  -2
6HR MIN TEMP:  13; 6HR MAX TEMP:  15; 6HR PCP: TRACE;

SPARTA         CLOUDY    13   9  83 W5        30.18R WCI   5
6HR MIN TEMP:  13; 6HR MAX TEMP:  14;

VIROQUA        CLOUDY     9   6  87 W8        30.14R WCI  -3
6HR MIN TEMP:   9; 6HR MAX TEMP:  12;

BOSCOBEL       CLOUDY    15   8  73 W5        30.21R WCI   8
6HR MIN TEMP:  15; 6HR MAX TEMP:  16; 6HR PCP: TRACE;

PRAIRIE DU CHI CLOUDY    15   8  75 NW8       30.21S WCI   4
6HR MIN TEMP:  14; 6HR MAX TEMP:  15;

PLATTEVILLE    MOCLDY    14  11  89 W7        30.16S WCI   4
6HR MIN TEMP:  13; 6HR MAX TEMP:  15;

$$

WIZ056-057-062-063-064-067-068-121300-
SOUTH CENTRAL WISCONSIN

CITY           SKY/WX    TMP DP  RH WIND       PRES   REMARKS
REEDSBURG      CLOUDY    12   7  79 W7        30.14S WCI   2
6HR MIN TEMP:  12; 6HR MAX TEMP:  14;

BARABOO/DELLS  CLOUDY    12   6  76 W6        30.13S WCI   3
6HR MIN TEMP:  12; 6HR MAX TEMP:  14;

LONE ROCK      CLOUDY    14   7  73 NW9       30.19R WCI   2
6HR MIN TEMP:  14; 6HR MAX TEMP:  15; 6HR PCP: TRACE;

MINERAL POINT  FLURRIES  16  12  86 W8        30.14R WCI   5
MADISON        FLURRIES  14   6  70 NW8       30.13S WCI   3
6HR MIN TEMP:  14; 6HR MAX TEMP:  16; 6HR PCP: TRACE;

MIDDLETON      CLOUDY    15   9  75 W9        30.14S WCI   4
6HR MIN TEMP:  15; 6HR MAX TEMP:  17;

WATERTOWN      CLOUDY    15   5  65 W7        30.11F WCI   5
6HR MIN TEMP:  15; 6HR MAX TEMP:  17;

MONROE         FLURRIES  16  10  79 W14       30.12S WCI   1
JANESVILLE     MOCLDY    18   7  62 W13       30.13F WCI   4
$$

WIZ051-052-058>065-066-070>072-121300-
SOUTHEAST WISCONSIN

CITY           SKY/WX    TMP DP  RH WIND       PRES   REMARKS
MILWAUKEE      CLOUDY    18   2  49 NW10      30.11S WCI   6
6HR MIN TEMP:  17; 6HR MAX TEMP:  18;

WAUKESHA       CLOUDY    14   1  57 W10       30.11S WCI   1
MILWAUKEE/TIMM CLOUDY    18   1  49 W12G20    30.11F WCI   5
RACINE         CLOUDY    18   5  57 W10       30.12F WCI   6
6HR MIN TEMP:  17; 6HR MAX TEMP:  18;

BURLINGTON     CLOUDY    16   7  67 W8G16     30.12S WCI   5
6HR MIN TEMP:  15; 6HR MAX TEMP:  16;

KENOSHA        CLOUDY    18   7  62 W17       30.11F WCI   3
6HR MIN TEMP:  17; 6HR MAX TEMP:  18;

FOND DU LAC    CLOUDY    14   4  64 W12       30.10S WCI   0
6HR MIN TEMP:  14; 6HR MAX TEMP:  16;

SHEBOYGAN      CLOUDY    15   3  59 NW16G22   30.09R WCI  -1
6HR MIN TEMP:  15; 6HR MAX TEMP:  16;

WEST BEND      CLOUDY    14   3  62 W6        30.09S WCI   5
JUNEAU         CLOUDY    13   4  64 W7        30.12S WCI   3
6HR MIN TEMP:  13; 6HR MAX TEMP:  15;

$$

LSZ147-162-121300-
LAKE SUPERIOR

STATION/POSITION TIME  TEMP    WIND        PRES    WAVE
                       AIR SEA DIR/SP/G            HT/PER
                 (UTC) (F)     (DEG/KT/KT) (MB)    (FT/S)
DEVILS ISLAND    1200    7     330/ 25/ 30 1023.2R
PORT WING        1100    9     310/ 18/ 24 1022.4
SAXON HARBOR     1100   11                 1020.3
$$

LMZ867-665-643>646-121300-
LAKE MICHIGAN

STATION/POSITION TIME  TEMP    WIND        PRES    WAVE
                       AIR SEA DIR/SP/G            HT/PER
                 (UTC) (F)     C1F1C2F2C3F3C4F4C5F5C6F6C7F7C8M1C9M2Ca!


USA.gov is the U.S. government's official web portal to all federal, state and local government web resources and services.